Birmingham, AL

4:36 AM CDT on July 27, 2017 (GMT -0500)
Birmingham International

Weather History for KBHM - May, 2014

Change the Weather History Date:

Sunday, May 11, 2014

  Actual Average Record
Temperature  
Mean Temperature 75 °F 69 °F  
Max Temperature 85 °F 80 °F 95 °F (1962)
Min Temperature 65 °F 58 °F 42 °F (1989)
Cooling Degree Days 10 5  
Month to date cooling degree days 62 48  
Year to date cooling degree days 121 132  
Growing Degree Days 24 (Base 50)    
Moisture  
Dew Point 67 °F    
Average Humidity 78    
Maximum Humidity 100    
Minimum Humidity 55    
Precipitation  
Precipitation 0.00 in 0.15 in 1.55 in (2008)
Month to date precipitation 0.14 1.78  
Year to date precipitation 20.68 20.76  
Sea Level Pressure  
Sea Level Pressure 30.10 in    
Wind  
Wind Speed 5 mph (SE)    
Max Wind Speed 12 mph    
Max Gust Speed 16 mph    
Visibility 8 miles    
Events      
T = Trace of Precipitation, MM = Missing Value Source: NWS Daily Summary

Daily Weather History Graph

Daily Weather History Graph

Search for Another Location

Airport or City:

Trip Planner

Search our weather history database for the weather conditions in past years. The results will help you decide how hot, cold, wet, or windy it might be!

Date:

Astronomy

May. 11, 2014 Rise Set
Actual Time 5:49 AM CDT 7:37 PM CDT
Civil Twilight 5:22 AM CDT 8:04 PM CDT
Nautical Twilight 4:49 AM CDT 8:37 PM CDT
Astronomical Twilight 4:14 AM CDT 9:12 PM CDT
Moon 4:41 PM CDT (5/11) 3:44 AM CDT (5/11)
Length of Visible Light 14h 42m
Length of Day
13h 48m
Waxing Gibbous, 89% of the Moon is Illuminated
May 11
Waxing Gibbous
May 14
Full
May 21
Last Quarter
May 28
New
Jun 5
First Quarter

Hourly Weather History & Observations

Time (CDT) Temp. Heat Index Dew Point Humidity Pressure Visibility Wind Dir Wind Speed Gust Speed Precip Events Conditions
12:53 AM 66.2 °F - 64.4 °F 94% 30.09 in 8.0 mi Calm Calm - N/A   Clear
1:53 AM 66.9 °F - 64.9 °F 93% 30.06 in 8.0 mi NE 3.5 mph - N/A   Clear
2:53 AM 66.0 °F - 64.0 °F 93% 30.06 in 8.0 mi Calm Calm - N/A   Clear
3:53 AM 64.9 °F - 64.0 °F 97% 30.06 in 8.0 mi Calm Calm - N/A   Clear
4:44 AM 66.2 °F - 64.4 °F 94% 30.09 in 6.0 mi Calm Calm - N/A   Scattered Clouds
4:53 AM 66.0 °F - 64.9 °F 96% 30.07 in 6.0 mi Calm Calm - N/A   Mostly Cloudy
5:06 AM 66.2 °F - 66.2 °F 100% 30.09 in 1.8 mi SE 4.6 mph - N/A   Overcast
5:35 AM 68.0 °F - 66.2 °F 94% 30.10 in 2.0 mi Calm Calm - N/A   Overcast
5:53 AM 68.0 °F - 66.9 °F 96% 30.08 in 1.8 mi SE 5.8 mph - N/A   Overcast
6:16 AM 68.0 °F - 66.2 °F 94% 30.11 in 2.5 mi Calm Calm - N/A   Overcast
6:53 AM 69.1 °F - 68.0 °F 96% 30.11 in 3.0 mi Calm Calm - N/A   Overcast
7:53 AM 70.0 °F - 68.0 °F 93% 30.13 in 4.0 mi Variable 4.6 mph - N/A   Overcast
8:53 AM 72.0 °F - 69.1 °F 91% 30.14 in 5.0 mi SE 8.1 mph - N/A   Overcast
9:33 AM 71.6 °F - 69.8 °F 94% 30.16 in 6.0 mi South 3.5 mph - N/A   Overcast
9:53 AM 73.9 °F - 69.1 °F 85% 30.14 in 6.0 mi South 6.9 mph - N/A   Haze
10:15 AM 75.2 °F - 69.8 °F 83% 30.16 in 8.0 mi Variable 3.5 mph - N/A   Overcast
10:53 AM 75.0 °F - 68.0 °F 79% 30.14 in 10.0 mi SE 5.8 mph - N/A   Overcast
11:02 AM 78.8 °F - 69.8 °F 74% 30.16 in 10.0 mi ESE 4.6 mph - N/A   Mostly Cloudy
11:13 AM 78.8 °F - 69.8 °F 74% 30.15 in 10.0 mi South 4.6 mph - N/A   Scattered Clouds
11:53 AM 80.1 °F 82.7 °F 68.0 °F 67% 30.13 in 10.0 mi SE 9.2 mph - N/A   Partly Cloudy
12:19 PM 80.6 °F 82.7 °F 66.2 °F 61% 30.15 in 10.0 mi SE 8.1 mph - N/A   Mostly Cloudy
12:37 PM 80.6 °F 82.7 °F 66.2 °F 61% 30.14 in 10.0 mi SE 6.9 mph - N/A   Scattered Clouds
12:53 PM 82.4 °F 84.6 °F 66.2 °F 58% 30.13 in 10.0 mi South 9.2 mph - N/A   Scattered Clouds
1:53 PM 84.0 °F 86.3 °F 66.0 °F 55% 30.09 in 10.0 mi SSE 10.4 mph - N/A   Mostly Cloudy
2:53 PM 84.0 °F 86.3 °F 66.0 °F 55% 30.06 in 10.0 mi SE 8.1 mph - N/A   Scattered Clouds
3:53 PM 82.9 °F 84.6 °F 64.9 °F 54% 30.05 in 10.0 mi SE 6.9 mph - N/A   Mostly Cloudy
4:53 PM 82.9 °F 85.0 °F 66.0 °F 56% 30.04 in 10.0 mi ESE 5.8 mph - N/A   Scattered Clouds
5:53 PM 82.0 °F 84.5 °F 66.9 °F 60% 30.04 in 10.0 mi SE 5.8 mph - N/A   Mostly Cloudy
6:53 PM 80.1 °F 82.1 °F 66.0 °F 62% 30.05 in 10.0 mi SE 6.9 mph - N/A   Mostly Cloudy
7:53 PM 78.1 °F - 66.9 °F 68% 30.06 in 10.0 mi SE 6.9 mph - N/A   Mostly Cloudy
8:53 PM 77.0 °F - 66.9 °F 71% 30.07 in 10.0 mi SE 5.8 mph - N/A   Mostly Cloudy
9:53 PM 75.9 °F - 66.0 °F 71% 30.09 in 10.0 mi Calm Calm - N/A   Mostly Cloudy
10:53 PM 75.0 °F - 66.0 °F 73% 30.09 in 10.0 mi SE 4.6 mph - N/A   Scattered Clouds
11:53 PM 73.9 °F - 66.0 °F 76% 30.09 in 10.0 mi SE 4.6 mph - N/A   Scattered Clouds